Probability
0 0 0 0 0 0 0 0 0 0 0 0 0 0 0 0 0 0 0 0 0 0 0 0 0 0 0 0 0 0 0 0 0 0 0 0 0 0 0 0 0 0 0
0 0 0 0 0 0 0 0 0 0 0 0 0 0 0 0 0 0 0 0 0 0 0 0 0 0 0 0 0 0 0 0 0 0 0 0 0 0 0 0 0 0 0
0 0 0 0 0 0 0 0 0 0 0 0 0 0 0 0 0 0 0 0 0 0 0 0 0 0 0 0 0 0 0 0 0 0 0 0 0 0 0 0 0 0 0
0 0 0 0 0 0 0 0 0 0 0 0 0 0 0 0 0 0 0 0 0 0 0 0 0 0 0 0 0 0 0 0 0 0 0 0 0 0 0 0 0 0 0
0 0 0 0 0 0 0 0 0 0 0 0 0 0 0 0 0 0 0 0 0 0 0 0 0 0 0 0 0 0 0 0 0 0 0 0 0 0 0 0 0 0 0
0 0 0 0 0 0 0 0 0 0 0 0 0 0 0 0 0 0 0 0 0 0 0 0 0 0 0 0 0 0 0 0 0 0 0 0 0 0 0 0 0 0 0
0 0 0 0 0 0 0 0 0 0 0 0 0 0 0 0 0 0 0 0 0 0 0 0 0 0 0 0 0 0 0 0 0 0 0 0 0 0 0 0 0 0 0
0 0 0 0 0 0 0 0 0 0 0 0 0 0 0 0 0 0 0 0 0 0 0 0 0 0 0 0 0 0 0 0 0 0 0 0 0 0 0 0 0 0 0
0 0 0 0 0 0 0 0 0 0 0 0 0 0 0 0 0 0 0 0 0 0 0 0 0 0 0 0 0 0 0 0 0 0 0 0 0 0 0 0 0 0 0
0 0 0 0 0 0 0 0 0 0 0 0 0 0 0 0 0 0 0 0 0 0 0 0 0 0 0 0 0 0 0 0 0 0 0 0 0 0 0 0 0 0 0
0 0 0 0 0 0 0 0 0 0 0 0 0 0 0 0 0 0 0 0 0 0 0 0 0 0 0 0 0 0 0 0 0 0 0 0 0 0 0 0 0 0 0
0 0 0 0 0 0 0 0 0 0 0 0 0 0 0 0 0 0 0 0 0 0 0 0 0 0 0 0 0 0 0 0 0 0 0 0 0 0 0 0 0 0 0
0 0 0 0 0 0 0 0 0 0 0 0 0 0 0 0 0 0 0 0 0 0 0 0 0 0 0 0 0 0 0 0 0 0 0 0 0 0 0 0 0 0 0
0 0 0 0 0 0 0 0 0 0 0 0 0 0 0 0 0 0 0 0 0 0 0 0 0 0 0 0 0 0 0 0 0 0 0 0 0 0 0 0 0 0 0
0 0 0 0 0 0 0 0 0 0 0 0 0 0 0 0 0 0 0 0 0 0 0 0 0 0 0 0 0 0 0 0 0 0 0 0 0 0 0 0 0 0 0
0 0 0 0 0 0 0 0 0 0 0 0 0 0 0 0 0 0 0 0 0 0 0 0 0 0 0 0 0 0 0 0 0 0 0 0 0 0 0 0 0 0 0
0 0 0 0 0 0 0 0 0 0 0 0 0 0 0 0 0 0 0 0 0 0 0 0 0 0 0 0 0 0 0 0 0 0 0 0 0 0 0 0 0 0 0
0 0 0 0 0 0 0 0 0 0 0 0 0 0 0 0 0 0 0 0 0 0 0 0 0 0 0 0 0 0 0 0 0 0 0 0 0 0 0 0 0 0 0
0 0 0 0 0 0 0 0 0 0 0 0 0 0 0 0 0 0 0 0 0 0 0 0 0 0 0 0 0 0 0 0 0 0 0 0 0 0 0 0 0 0 0
0 0 0 0 0 0 0 0 0 0 0 0 0 0 0 0 0 0 0 0 0 0 0 0 0 0 0 0 0 0 0 0 0 0 0 0 0 0 0 0 0 0 0
0 0 0 0 0 0 0 0 0 0 0 0 0 0 0 0 0 0 0 0 0 0 0 0 0 0 0 0 0 0 0 0 0 0 0 0 0 0 0 0 0 0 0
0 0 0 0 0 0 0 0 0 0 0 0 0 0 0 0 0 0 0 0 0 0 0 0 0 0 0 0 0 0 0 0 0 0 0 0 0 0 0 0 0 0 0
0 0 0 0 0 0 0 0 0 0 0 0 0 0 0 0 0 0 0 0 0 0 0 0 0 0 0 0 0 0 0 0 0 0 0 0 0 0 0 0 0 0 0
0 0 0 0 0 0 0 0 0 0 0 0 0 0 0 0 0 0 0 0 0 0 0 0 0 0 0 0 0 0 0 0 0 0 0 0 0 0 0 0 0 0 0
0 0 0 0 0 0 0 0 0 0 0 0 0 0 0 0 0 0 0 0 0 0 0 0 0 0 0 0 0 0 0 0 0 0 0 0 0 0 0 0 0 0 0
0 0 0 0 0 0 0 0 0 0 0 0 0 0 0 0 0 0 0 0 0 0 0 0 0 0 0 0 0 0 0 0 0 0 0 0 0 0 0 0 0 0 0
Height
5669 5670 5671 5673 5674 5676 5679 5681 5683 5685 5687 5689 5691 5693 5694 5696 5697 5698 5699 5700 5702 5704 5706 5708 5710 5713 5715 5717 5719 5720 5722 5724 5726 5727 5729 5730 5731 5732 5733 5734 5735 5736 5738
5657 5659 5660 5661 5663 5666 5668 5670 5672 5674 5676 5678 5680 5682 5683 5685 5686 5688 5689 5691 5692 5694 5696 5698 5700 5701 5703 5705 5707 5709 5711 5712 5714 5715 5716 5718 5719 5720 5721 5722 5722 5724 5726
5646 5648 5649 5651 5652 5654 5656 5658 5660 5662 5664 5666 5668 5670 5671 5673 5675 5677 5679 5680 5681 5683 5685 5686 5688 5690 5692 5693 5695 5696 5698 5700 5701 5702 5704 5705 5707 5707 5708 5709 5710 5711 5713
5635 5637 5638 5640 5641 5643 5644 5646 5648 5650 5652 5654 5656 5658 5660 5662 5664 5665 5667 5668 5670 5671 5673 5675 5676 5677 5679 5681 5682 5683 5685 5687 5688 5689 5690 5692 5693 5694 5696 5697 5697 5698 5700
5624 5625 5626 5628 5629 5630 5632 5634 5636 5637 5639 5641 5643 5645 5647 5649 5651 5653 5654 5656 5658 5659 5660 5662 5663 5665 5666 5667 5669 5670 5671 5673 5674 5676 5677 5678 5679 5680 5682 5684 5685 5686 5687
5611 5613 5614 5615 5616 5618 5619 5621 5623 5625 5627 5628 5630 5632 5634 5637 5638 5640 5641 5643 5644 5646 5647 5648 5650 5651 5652 5654 5655 5656 5657 5658 5660 5662 5663 5664 5665 5666 5667 5669 5671 5673 5674
5599 5600 5601 5603 5604 5605 5607 5608 5610 5612 5613 5615 5617 5619 5621 5623 5625 5626 5628 5629 5631 5632 5634 5634 5636 5637 5638 5639 5640 5641 5642 5644 5645 5647 5648 5649 5650 5651 5653 5655 5656 5658 5660
5586 5588 5589 5590 5592 5593 5594 5595 5596 5598 5600 5602 5603 5606 5608 5610 5611 5613 5614 5615 5617 5618 5619 5620 5622 5622 5623 5624 5626 5627 5628 5629 5630 5631 5633 5634 5635 5636 5637 5639 5641 5643 5645
5575 5576 5577 5578 5580 5581 5582 5582 5583 5584 5586 5588 5590 5592 5594 5596 5597 5599 5600 5601 5603 5604 5605 5606 5607 5608 5609 5610 5612 5613 5613 5614 5615 5617 5618 5619 5620 5621 5622 5623 5625 5627 5629
5563 5564 5565 5567 5568 5569 5569 5570 5570 5570 5572 5574 5576 5578 5580 5582 5583 5585 5586 5587 5589 5590 5591 5592 5593 5594 5595 5596 5597 5598 5599 5600 5601 5602 5603 5604 5605 5606 5607 5608 5609 5610 5612
5552 5553 5554 5555 5556 5556 5557 5558 5558 5558 5559 5561 5562 5564 5566 5567 5569 5570 5571 5573 5574 5575 5577 5578 5579 5580 5581 5582 5583 5584 5585 5585 5586 5587 5588 5589 5590 5591 5591 5592 5593 5594 5595
5541 5542 5542 5543 5544 5544 5545 5545 5546 5546 5547 5548 5549 5551 5552 5553 5554 5556 5557 5558 5559 5561 5562 5563 5564 5565 5566 5567 5568 5569 5570 5571 5571 5572 5573 5574 5575 5575 5576 5576 5577 5578 5579
5531 5531 5531 5531 5532 5532 5533 5533 5533 5534 5534 5535 5536 5537 5538 5539 5540 5541 5542 5543 5545 5546 5547 5549 5550 5551 5552 5553 5554 5554 5555 5556 5557 5558 5558 5559 5560 5560 5560 5561 5561 5562 5563
5520 5520 5520 5520 5520 5520 5520 5520 5521 5521 5521 5522 5523 5524 5524 5525 5526 5527 5528 5529 5530 5532 5533 5534 5536 5537 5537 5538 5539 5540 5541 5542 5542 5543 5544 5545 5545 5546 5545 5545 5546 5547 5547
5510 5509 5509 5508 5508 5508 5508 5508 5508 5509 5509 5509 5510 5511 5511 5512 5512 5513 5514 5515 5516 5518 5519 5520 5521 5522 5523 5524 5525 5526 5527 5527 5528 5529 5530 5530 5531 5531 5531 5531 5531 5532 5532
5500 5499 5498 5497 5497 5496 5496 5496 5496 5496 5497 5497 5498 5498 5498 5499 5499 5500 5500 5501 5502 5504 5505 5506 5508 5509 5510 5511 5511 5512 5513 5514 5514 5515 5516 5517 5517 5517 5517 5517 5517 5517 5517
5489 5488 5487 5486 5485 5485 5484 5484 5484 5484 5484 5484 5485 5485 5486 5486 5486 5487 5487 5488 5489 5490 5492 5493 5494 5495 5496 5497 5497 5498 5499 5500 5501 5502 5503 5504 5504 5504 5504 5504 5503 5503 5503
5479 5477 5476 5475 5474 5473 5473 5472 5472 5472 5472 5472 5472 5472 5473 5473 5474 5474 5475 5476 5477 5477 5479 5480 5481 5482 5483 5483 5484 5485 5485 5487 5488 5489 5490 5490 5491 5491 5491 5490 5490 5490 5490
5468 5467 5465 5464 5463 5462 5461 5461 5460 5460 5459 5459 5460 5460 5460 5461 5461 5461 5462 5463 5464 5465 5466 5467 5468 5469 5470 5470 5471 5471 5472 5473 5475 5476 5476 5477 5477 5478 5478 5477 5477 5478 5477
5458 5456 5454 5453 5451 5450 5449 5449 5448 5448 5447 5447 5447 5447 5447 5448 5448 5449 5449 5450 5451 5452 5453 5454 5455 5456 5457 5457 5458 5459 5460 5461 5462 5463 5463 5464 5464 5464 5464 5464 5464 5465 5464
5448 5445 5444 5442 5440 5439 5438 5437 5436 5436 5435 5435 5435 5435 5435 5435 5436 5436 5437 5437 5439 5440 5441 5442 5443 5443 5444 5445 5445 5446 5447 5448 5449 5450 5451 5451 5451 5451 5451 5451 5452 5452 5451
5437 5435 5433 5431 5429 5427 5426 5426 5425 5424 5423 5423 5423 5423 5423 5423 5423 5424 5424 5425 5426 5427 5428 5429 5430 5431 5432 5432 5433 5434 5435 5436 5437 5438 5438 5439 5439 5439 5439 5439 5439 5439 5438
5427 5424 5422 5420 5418 5416 5415 5414 5414 5412 5412 5412 5411 5411 5411 5411 5412 5412 5413 5413 5414 5415 5416 5417 5418 5419 5420 5420 5421 5422 5423 5424 5425 5426 5426 5426 5427 5427 5427 5426 5426 5426 5426
5416 5414 5412 5410 5408 5406 5404 5403 5402 5401 5401 5400 5400 5400 5400 5400 5400 5401 5401 5402 5403 5403 5404 5405 5406 5407 5408 5408 5409 5410 5411 5412 5413 5414 5414 5414 5414 5415 5415 5415 5415 5415 5414
5405 5403 5401 5399 5397 5395 5394 5392 5391 5390 5390 5389 5389 5389 5389 5389 5389 5389 5390 5391 5391 5392 5393 5393 5394 5395 5396 5396 5397 5398 5399 5400 5401 5401 5402 5402 5403 5403 5403 5403 5403 5403 5403
5395 5392 5390 5388 5386 5384 5383 5381 5380 5379 5379 5379 5378 5378 5378 5378 5378 5378 5379 5379 5380 5380 5381 5381 5382 5383 5384 5384 5385 5385 5387 5387 5388 5389 5390 5390 5391 5391 5391 5391 5391 5391 5391
Wind_Speed
43 43 44 44 45 45 45 44 45 45 45 45 45 44 43 43 43 43 43 44 43 43 44 44 45 44 45 46 46 46 46 46 46 46 46 46 45 45 45 45 45 45 45
43 44 44 44 45 46 45 45 45 46 46 46 46 46 45 45 45 45 45 45 45 45 45 45 46 46 47 47 47 48 48 48 48 48 48 48 47 47 47 47 47 47 47
43 43 44 45 45 45 46 46 46 47 47 47 47 47 47 47 47 47 47 47 47 47 47 47 47 47 47 48 48 49 49 49 50 50 49 49 49 49 48 48 48 48 48
43 43 43 44 45 46 47 47 47 47 48 49 49 49 50 49 49 48 49 49 49 50 49 50 50 49 49 49 49 49 50 51 51 51 50 50 50 49 49 49 49 49 50
43 44 44 44 45 46 47 48 48 48 48 49 49 50 50 50 50 50 50 50 51 51 51 52 52 52 51 51 51 52 52 52 52 53 52 52 52 51 51 51 51 51 52
42 43 44 44 45 46 47 48 48 49 49 50 50 51 51 51 51 52 52 52 52 53 52 53 54 54 54 53 53 54 54 54 54 55 55 55 54 54 53 53 52 52 52
41 42 43 44 45 45 46 47 49 49 50 51 52 52 52 52 52 53 53 54 54 54 54 54 55 55 55 55 55 55 55 55 55 55 55 56 56 55 55 55 54 54 54
41 42 42 43 44 45 45 46 48 50 50 51 52 52 52 53 53 53 53 54 53 53 54 54 54 54 55 55 55 55 55 55 55 55 55 55 55 56 56 56 56 56 56
41 42 42 43 43 44 44 44 46 48 50 51 51 51 52 52 53 54 54 53 53 53 54 54 54 55 55 55 55 55 54 54 54 55 55 55 55 55 56 57 58 58 58
39 40 41 42 43 43 44 45 45 46 48 48 50 51 52 52 53 53 53 53 53 53 53 54 53 54 55 55 55 54 54 54 54 54 55 55 54 55 56 57 58 58 58
39 39 40 40 42 43 44 44 44 45 46 48 48 49 50 51 52 52 53 53 52 53 53 53 54 54 55 55 55 55 55 55 55 55 55 55 55 56 57 57 58 58 57
38 38 39 40 41 42 43 43 43 44 45 46 47 48 49 51 51 52 53 53 52 53 53 53 54 55 55 54 54 55 55 56 56 55 56 56 56 57 57 57 58 58 58
37 38 39 40 40 41 41 42 43 43 44 45 46 47 48 49 49 50 51 51 51 52 52 52 53 53 53 54 54 54 54 54 55 56 56 56 56 56 57 57 57 58 58
35 36 38 39 40 41 41 41 42 42 43 44 45 46 45 46 47 48 50 50 50 50 51 52 52 52 52 52 53 53 54 54 53 54 54 54 54 54 55 56 57 58 58
35 36 37 37 38 39 40 41 42 43 43 43 44 45 45 45 45 46 48 49 49 49 50 50 50 50 49 49 50 51 52 52 52 52 52 52 52 52 51 53 54 55 56
36 36 37 37 37 38 38 39 41 42 42 43 43 43 44 44 44 45 46 47 47 48 48 48 48 48 47 48 49 49 50 50 50 50 50 51 51 50 50 50 51 52 53
36 37 37 37 37 37 38 39 39 40 41 42 42 42 42 43 43 43 44 44 44 46 46 46 46 46 47 47 47 48 48 48 48 49 49 49 49 49 49 49 49 50 50
36 37 37 38 38 39 39 39 39 39 40 41 41 42 41 41 41 42 42 43 43 44 45 45 45 46 46 46 46 47 47 48 48 48 48 48 49 48 48 48 48 48 48
36 36 36 37 38 38 39 39 38 39 39 40 41 42 42 42 42 43 43 43 43 43 44 44 45 45 45 45 45 46 46 46 47 47 46 46 46 45 45 46 46 46 46
34 34 34 35 36 37 37 38 38 39 39 39 40 41 41 41 42 42 42 42 42 42 42 43 43 44 43 44 44 44 44 44 44 44 45 45 45 45 45 45 45 45 45
34 34 35 36 36 37 37 38 38 39 39 39 39 39 39 39 40 41 41 41 41 41 41 41 42 42 42 43 43 42 42 42 42 42 43 44 44 45 44 44 44 44 44
36 35 36 36 36 37 37 37 38 38 38 39 39 38 38 38 38 38 39 40 40 41 40 40 40 41 41 42 42 41 41 41 41 41 41 41 42 43 42 43 43 43 43
37 37 36 36 36 36 36 36 36 36 37 37 36 37 37 37 37 37 37 38 39 39 39 39 38 39 40 41 41 41 40 39 39 39 39 40 39 40 40 40 41 41 41
36 36 35 35 34 35 35 35 35 34 35 35 35 35 35 35 36 37 36 37 37 38 38 38 38 38 39 39 40 41 40 40 39 39 39 40 39 39 39 40 40 39 39
35 35 35 34 33 33 33 33 33 34 33 33 33 34 34 35 35 36 37 37 37 37 36 37 38 38 39 39 40 40 40 40 40 40 39 38 38 38 38 38 39 39 39
36 35 34 34 33 33 33 32 31 32 32 32 33 33 34 35 35 36 36 37 37 37 36 37 37 37 38 38 38 39 39 39 39 39 39 38 38 38 37 37 37 37 38
Wind_Direction
256 256 255 255 255 254 254 254 254 254 254 254 255 255 255 255 256 256 256 256 256 256 256 257 258 258 258 259 259 260 260 261 261 261 261 262 262 262 262 262 261 261 261
256 255 255 255 255 254 254 254 255 255 255 255 255 255 254 255 256 257 256 256 256 256 257 257 258 258 259 259 259 260 260 260 261 262 262 262 262 262 262 262 262 261 261
257 257 256 256 256 256 256 255 256 256 256 256 256 256 256 256 256 256 257 256 256 257 258 258 259 260 260 260 260 260 261 261 262 263 263 263 263 262 262 262 262 262 261
258 258 257 257 257 257 257 256 256 256 255 255 256 257 257 257 258 257 257 258 258 259 259 260 260 261 261 261 261 262 262 262 263 263 263 263 263 262 262 262 262 262 262
258 258 258 257 257 257 257 256 256 255 255 255 255 256 256 257 257 257 258 259 259 259 259 260 261 261 261 261 262 263 263 263 263 263 263 263 263 263 263 262 262 262 262
258 258 258 258 258 258 257 257 256 255 255 255 254 255 255 256 257 257 258 258 259 260 260 260 260 261 261 263 263 264 263 263 264 264 264 264 264 264 263 262 262 262 263
259 258 258 259 259 259 258 257 256 255 255 256 256 256 256 257 258 259 259 259 260 260 261 261 261 261 261 262 263 264 264 264 264 264 264 264 264 264 264 263 263 262 263
261 260 259 259 259 259 259 258 257 256 256 256 256 256 257 257 257 258 259 259 260 260 261 262 261 262 262 262 263 264 264 264 264 264 264 264 264 264 264 264 264 264 264
263 262 260 259 259 260 260 260 259 257 256 255 256 256 256 257 257 258 259 259 260 260 261 262 261 261 261 262 263 264 264 265 265 265 265 264 264 264 264 264 264 264 264
265 264 263 261 260 260 261 261 261 258 256 256 256 256 257 256 256 256 258 259 260 260 261 261 261 261 261 262 263 264 263 264 265 265 265 264 264 264 264 264 265 265 264
267 266 265 264 263 262 263 263 263 260 259 257 257 257 257 258 258 258 258 259 259 260 261 261 261 261 262 263 263 264 264 265 265 266 265 265 265 265 264 265 265 265 265
268 267 266 265 265 265 264 264 264 263 261 259 258 259 258 259 259 259 259 259 259 259 259 260 261 261 261 262 263 264 264 265 265 265 265 265 266 265 265 266 265 265 265
270 268 267 266 265 265 265 265 264 263 262 262 261 261 261 260 260 260 260 260 259 259 259 260 261 261 261 262 263 263 264 265 265 266 266 266 267 267 267 266 266 266 266
273 272 269 267 266 266 266 266 265 263 262 262 262 262 262 262 261 261 260 260 259 259 259 259 261 261 262 262 263 262 263 264 266 266 266 266 267 267 268 268 266 266 267
276 275 273 271 268 267 267 266 265 264 263 263 263 263 264 263 263 262 261 260 259 259 259 260 261 262 262 262 262 263 263 264 265 265 264 265 267 267 268 268 267 267 268
277 277 275 273 270 269 268 268 267 266 265 264 264 264 264 264 263 263 262 261 260 260 260 261 261 261 261 261 261 262 263 264 264 263 264 265 266 266 267 268 267 267 268
279 278 277 275 273 272 270 269 268 268 266 265 265 265 264 263 263 263 263 262 262 261 261 261 261 261 261 260 260 261 262 263 263 263 264 265 265 266 266 266 267 268 269
282 280 278 276 275 273 272 271 270 268 267 266 266 266 266 265 263 263 263 263 263 262 261 261 260 261 261 260 260 261 261 261 262 262 263 264 265 266 266 267 268 269 270
284 282 279 276 274 272 271 271 270 269 268 267 267 267 267 266 265 264 264 264 263 262 261 261 260 260 261 262 262 261 261 262 263 263 263 264 266 266 266 267 268 269 270
283 282 280 278 277 274 272 272 271 269 268 268 268 267 267 267 265 265 264 263 263 262 262 261 260 260 261 262 262 262 263 263 263 264 265 265 265 265 266 267 268 269 270
284 282 281 279 278 277 275 273 272 271 270 269 269 267 267 266 265 265 264 263 262 262 262 262 260 260 261 262 262 262 263 264 264 265 265 266 265 266 267 268 268 269 270
286 284 283 280 279 278 277 275 273 271 269 268 268 267 266 265 264 263 262 261 260 260 261 261 261 260 260 261 262 262 263 264 265 265 266 266 266 267 268 269 269 269 270
287 286 285 283 280 278 276 275 274 272 269 267 266 265 264 263 263 263 262 261 261 260 261 261 262 261 260 261 261 262 263 263 264 265 266 267 268 268 269 269 269 270 270
288 287 285 284 282 280 278 276 275 273 271 268 267 265 264 264 264 264 264 263 263 262 262 262 262 262 261 260 261 262 263 264 264 266 267 268 268 269 269 270 269 270 270
289 287 285 284 282 281 280 277 276 275 273 271 269 267 266 265 264 263 263 264 264 264 263 263 263 262 262 262 262 262 263 264 264 265 266 267 268 269 269 270 270 270 270
290 288 286 283 282 281 280 278 277 276 275 273 271 269 267 267 266 265 265 265 264 263 263 264 264 264 263 263 263 263 264 263 264 265 266 267 268 268 269 269 269 270 270